Miscellaneous Local Product
Issued by NWS North Platte, NE

Home | Current Version | Previous Version | Graphics & Text | Print | Product List | Glossary On
Versions: 1 2 3 4 5 6 7 8 9 10 11 12 13 14 15 16 17 18 19 20 21 22 23 24 25 26 27 28 29 30 31 32 33 34 35 36 37 38 39 40 41 42 43 44 45 46 47 48 49 50
850
AXUS43 KLBF 301410
MISLBF


WESTERN AND NORTH CENTRAL NEBRASKA HOURLY WEATHER ROUNDUP
NATIONAL WEATHER SERVICE NORTH PLATTE NE
900 AM CDT TUE AUG 30 2016

NOTE: "FAIR" INDICATES FEW OR NO CLOUDS BELOW 12,000 FEET WITH NO
SIGNIFICANT WEATHER AND/OR OBSTRUCTIONS TO VISIBILITY.

NOTE: STATIONS NOT REPORTING VARIABLES SUCH AS SKY/WEATHER OR
PRESSURE ARE PROVIDED BY RAWS AND APRS NETWORKS AND ARE NOT UNDER
NATIONAL WEATHER SERVICE QUALITY CONTROL.

...OBSERVATIONS IN AND NEAR THE EASTERN PANHANDLE OF NEBRASKA...

CITY           SKY/WX    TMP DP  RH WIND       PRES   REMARKS
PINE RIDGE     SUNNY     59  57  93 CALM      30.26S
CHADRON        CLOUDY    58  55  90 W3        30.27S
ALLIANCE       SUNNY     57  55  93 W5        30.28S
SIDNEY         CLOUDY    60  57  89 NW3       30.30S
CRESCENT LAKE    N/A     66  65  97 CALM        N/A
$$

...OBSERVATIONS IN NORTHERN NEBRASKA AND FAR SOUTHERN SOUTH DAKOTA...

CITY           SKY/WX    TMP DP  RH WIND       PRES   REMARKS
WINNER         FAIR      71  64  78 CALM      30.21R
VALENTINE      CLOUDY    67  61  81 CALM      30.23S
THEDFORD       CLOUDY    68  64  88 CALM      30.26S
AINSWORTH      MOSUNNY   66  65  97 SW3       30.24S
O`NEILL        CLOUDY    69  66  89 SE3       30.23R
ORD            CLOUDY    69  65  86 CALM      30.21F FOG
BROKEN BOW     CLOUDY    68  67  96 E3        30.25R FOG
VALENTINE NWR    N/A     63  62  98 CALM        N/A
BUTTE            N/A     70  67  90 NE5         N/A
HALSEY           N/A     64  62  95 SE3         N/A
EWING            N/A     68  67  97 CALM        N/A
$$

...OBSERVATIONS IN SOUTHWEST NEBRASKA AND FAR NORTHEAST COLORADO...

CITY           SKY/WX    TMP DP  RH WIND       PRES   REMARKS
WRAY           PTSUNNY  N/A N/A N/A W5        30.27  HAZE
HOLYOKE        FAIR      63  61  94 CALM      30.28S
IMPERIAL       MOSUNNY   64  61  90 CALM      30.27R
NORTH PLATTE   MOSUNNY   67  66  97 CALM      30.25S FOG
MCCOOK         CLOUDY    66  65  96 E3        30.24S FOG
LEXINGTON      CLOUDY    68  65  90 CALM      30.25S
STAPLETON        N/A     66  65  97 CALM        N/A
GOTHENBURG       N/A     67  63  88 CALM        N/A
CALLAWAY         N/A     64  63  98 CALM        N/A
$$

...OBSERVATIONS IN CENTRAL LINCOLN COUNTY AREA...

CITY           SKY/WX    TMP DP  RH WIND       PRES   REMARKS
N.P. AIRPORT   MOSUNNY   67  66  97 CALM      30.25S FOG
N.P. DOWNTOWN    N/A     68  66  94 CALM        N/A
N.P. SOUTHEAST   N/A     67  65  94 CALM        N/A
N.P. HILLCREST   N/A     67  66  97 CALM        N/A
$$

...SOME OBSERVATIONS FROM AROUND THE REGION...

CITY           SKY/WX    TMP DP  RH WIND       PRES   REMARKS
DENVER         CLOUDY    62  45  53 SW9       30.34S
LARAMIE        SUNNY     49  40  71 S5        30.44S
CHEYENNE       CLOUDY    52  44  74 W5        30.39R
SCOTTSBLUFF    SUNNY     62  57  83 NW6       30.29S
RAPID CITY     FOG       63  63 100 SE5       30.26S VSB<1/4
BISMARCK       SUNNY     56  50  80 E3        30.29R
PIERRE         CLOUDY    68  63  84 E14       30.19S
SIOUX FALLS    CLOUDY    72  68  87 SE6       30.21R
OMAHA          CLOUDY    72  68  87 N5        30.20S
GRAND ISLAND   CLOUDY    68  67  96 SE3       30.23S FOG
KANSAS CITY    PTSUNNY   73  70  90 CALM      30.16R
WICHITA        MOSUNNY   77  70  79 E8        30.16S
OKLAHOMA CITY  MOSUNNY   79  70  74 CALM      30.13S
DALLAS         MOSUNNY   82  73  74 N8        30.06R
AMARILLO       LGT RAIN  66  64  93 N5        30.26R FOG
DODGE CITY     CLOUDY    68  67  96 NE5       30.24R FOG
HAYS           CLOUDY    68  61  77 SE5       30.23R
GOODLAND       CLOUDY    63  62  97 CALM      30.27S
$$




USA.gov is the U.S. government's official web portal to all federal, state and local government web resources and services.